Renton, WA

5:20 PM PDT on June 24, 2017 (GMT -0700)
Renton Municipal

Weather History for KRNT - April, 2013

Change the Weather History Date:

Sunday, April 7, 2013

  Actual Average Record
Temperature  
Mean Temperature 44 °F -  
Max Temperature 45 °F 55 °F 77 °F (2016)
Min Temperature 42 °F 40 °F 33 °F (2011)
Degree Days  
Heating Degree Days 22    
Moisture  
Dew Point 41 °F    
Average Humidity 93    
Maximum Humidity 100    
Minimum Humidity 87    
Precipitation  
Precipitation 1.08 in - - ()
Sea Level Pressure  
Sea Level Pressure 29.70 in    
Wind  
Wind Speed 6 mph (SE)    
Max Wind Speed 14 mph    
Max Gust Speed 16 mph    
Visibility 6 miles    
Events Rain    
Averages and records for this station are not official NWS values.
T = Trace of Precipitation, MM = Missing Value Source: NWS Daily Summary

Daily Weather History Graph

Daily Weather History Graph

Search for Another Location

Airport or City:

Trip Planner

Search our weather history database for the weather conditions in past years. The results will help you decide how hot, cold, wet, or windy it might be!

Date:

Astronomy

Apr. 07, 2013 Rise Set
Actual Time 6:35 AM PDT 7:47 PM PDT
Civil Twilight 6:03 AM PDT 8:19 PM PDT
Nautical Twilight 5:25 AM PDT 8:57 PM PDT
Astronomical Twilight 4:45 AM PDT 9:38 PM PDT
Moon 5:05 AM PDT (4/7) 5:17 PM PDT (4/7)
Length of Visible Light 14h 15m
Length of Day
13h 12m
Waning Crescent, 7% of the Moon is Illuminated
Apr 7
Waning Crescent
Apr 10
New
Apr 18
First Quarter
Apr 25
Full
May 2
Last Quarter

Hourly Weather History & Observations

Time (PDT) Temp. Windchill Dew Point Humidity Pressure Visibility Wind Dir Wind Speed Gust Speed Precip Events Conditions
12:53 AM 45.0 °F - 44.1 °F 97% 29.73 in 10.0 mi Calm Calm - 0.00 in   Overcast
1:53 AM 45.0 °F 42.6 °F 43.0 °F 93% 29.68 in 6.0 mi WNW 4.6 mph - 0.02 in Rain Light Rain
2:53 AM 44.1 °F 40.8 °F 43.0 °F 96% 29.61 in 5.0 mi NNW 5.8 mph - 0.07 in Rain Light Rain
3:53 AM 44.1 °F 38.1 °F 42.1 °F 93% 29.56 in - NW 11.5 mph - N/A   Unknown
4:25 AM 44.6 °F 38.8 °F 42.8 °F 93% 29.52 in 5.0 mi NNW 11.5 mph - 0.02 in Rain Light Rain
4:53 AM 43.0 °F 37.7 °F 42.1 °F 97% 29.53 in 4.0 mi NNW 9.2 mph 16.1 mph 0.06 in Rain Light Rain
5:06 AM 42.8 °F 38.0 °F 42.8 °F 100% 29.50 in 4.0 mi NNW 8.1 mph - 0.03 in Rain Light Rain
5:27 AM 42.8 °F 38.0 °F 42.8 °F 100% 29.50 in 4.0 mi North 8.1 mph - 0.08 in Rain Light Rain
5:53 AM 43.0 °F 37.7 °F 42.1 °F 97% 29.52 in 4.0 mi NNW 9.2 mph - 0.16 in Rain Rain
6:27 AM 42.8 °F 35.8 °F 41.0 °F 93% 29.51 in 5.0 mi WNW 13.8 mph - 0.06 in Rain Light Rain
6:44 AM 42.8 °F 36.6 °F 39.2 °F 87% 29.52 in 4.0 mi WNW 11.5 mph - 0.10 in Rain Rain
6:53 AM 42.1 °F 36.1 °F 39.9 °F 92% 29.54 in 4.0 mi WNW 10.4 mph - 0.12 in Rain Light Rain
7:00 AM 42.8 °F 36.6 °F 39.2 °F 87% 29.53 in 4.0 mi WNW 11.5 mph - 0.01 in Rain Light Rain
7:53 AM 42.1 °F 39.2 °F 39.0 °F 89% 29.59 in 5.0 mi WNW 4.6 mph - 0.05 in Rain Light Rain
8:35 AM 42.8 °F - 39.2 °F 87% 29.62 in 5.0 mi Calm Calm - 0.01 in Rain Light Rain
8:53 AM 43.0 °F 38.2 °F 39.9 °F 89% 29.65 in 10.0 mi West 8.1 mph - 0.01 in   Overcast
9:53 AM 44.1 °F 41.5 °F 41.0 °F 89% 29.69 in 7.0 mi South 4.6 mph - 0.01 in Rain Light Rain
10:24 AM 42.8 °F 37.5 °F 41.0 °F 93% 29.69 in 5.0 mi South 9.2 mph - 0.05 in Rain Light Rain
10:31 AM 42.8 °F 38.0 °F 41.0 °F 93% 29.69 in 5.0 mi South 8.1 mph - 0.06 in Rain Light Rain
10:53 AM 43.0 °F 37.2 °F 39.9 °F 89% 29.73 in 5.0 mi South 10.4 mph - 0.08 in Rain Light Rain
11:22 AM 42.8 °F 37.5 °F 39.2 °F 87% 29.72 in 5.0 mi SSE 9.2 mph - 0.03 in Rain Light Rain
11:29 AM 42.8 °F 38.6 °F 39.2 °F 87% 29.72 in 6.0 mi SSE 6.9 mph - 0.04 in Rain Light Rain
11:40 AM 42.8 °F 38.6 °F 39.2 °F 87% 29.72 in 4.0 mi SE 6.9 mph - 0.06 in Rain Light Rain
11:53 AM 43.0 °F 39.5 °F 41.0 °F 93% 29.74 in 4.0 mi SE 5.8 mph - 0.07 in Rain Light Rain
11:59 AM 42.8 °F 40.1 °F 41.0 °F 93% 29.72 in 5.0 mi SE 4.6 mph - 0.01 in Rain Light Rain
12:31 PM 42.8 °F 38.0 °F 41.0 °F 93% 29.73 in 10.0 mi East 8.1 mph - 0.02 in Rain Light Rain
12:53 PM 43.0 °F 39.5 °F 39.9 °F 89% 29.75 in 10.0 mi Variable 5.8 mph - 0.02 in Rain Light Rain
1:32 PM 44.6 °F 41.4 °F 42.8 °F 93% 29.75 in 7.0 mi ESE 5.8 mph - 0.01 in Rain Light Rain
1:53 PM 44.1 °F 41.5 °F 43.0 °F 96% 29.77 in 6.0 mi East 4.6 mph - 0.02 in Rain Light Rain
2:05 PM 44.6 °F - 42.8 °F 93% 29.76 in 10.0 mi Calm Calm - 0.00 in   Overcast
2:09 PM 44.6 °F 43.1 °F 42.8 °F 93% 29.76 in 10.0 mi East 3.5 mph - 0.00 in Rain Light Rain
2:53 PM 44.1 °F 42.5 °F 44.1 °F 100% 29.78 in 2.0 mi East 3.5 mph - 0.11 in Rain Light Rain
2:56 PM 44.6 °F 43.1 °F 44.6 °F 100% 29.77 in 3.0 mi ENE 3.5 mph - 0.01 in Rain Rain
3:53 PM 45.0 °F - 43.0 °F 93% 29.79 in 3.0 mi Calm Calm - 0.10 in Rain Light Rain
3:59 PM 44.6 °F 42.2 °F 42.8 °F 93% 29.78 in 6.0 mi East 4.6 mph - 0.01 in Rain Light Rain
4:25 PM 44.6 °F - 42.8 °F 93% 29.78 in 3.0 mi Calm Calm - 0.04 in Rain Light Rain
4:53 PM 44.1 °F 41.5 °F 42.1 °F 93% 29.81 in 3.0 mi ESE 4.6 mph - 0.11 in Rain Rain
5:53 PM 44.1 °F 42.5 °F 42.1 °F 93% 29.81 in 7.0 mi SE 3.5 mph - 0.04 in Rain Light Rain
6:53 PM 44.1 °F 42.5 °F 42.1 °F 93% 29.82 in 10.0 mi SE 3.5 mph - 0.03 in Rain Light Rain
7:53 PM 43.0 °F - 42.1 °F 97% 29.84 in 10.0 mi Calm Calm - 0.00 in   Overcast
8:53 PM 43.0 °F 41.3 °F 41.0 °F 93% 29.86 in 10.0 mi SSE 3.5 mph - 0.00 in Rain Light Rain
9:53 PM 42.1 °F 39.2 °F 39.9 °F 92% 29.88 in 10.0 mi SSE 4.6 mph - 0.00 in   Overcast
10:53 PM 42.1 °F 39.2 °F 39.9 °F 92% 29.90 in 10.0 mi SE 4.6 mph - N/A   Overcast
11:21 PM 42.8 °F 40.1 °F 39.2 °F 87% 29.89 in 10.0 mi SSE 4.6 mph - N/A   Overcast
11:53 PM 42.1 °F 39.2 °F 39.9 °F 92% 29.92 in 10.0 mi SSE 4.6 mph - N/A   Overcast